Torna al catalogo

FENGYUN 1C DEB

AttivoSSO
NORAD 30475·DEBRIS·🇨🇳 China

Lanciato May 10, 1999 da Taiyuan Satellite Launch Center

Loading…

Prossimi Passaggi (prossime 24 ore)

TLE

AggiornatoSource: Space-Track

Epoca: Sep 14, 2026, 18:16 UTC

1 30475U 99025AGN 26257.76142591  .00000913  00000-0  47753-3 0  9993
2 30475  98.7707 300.2986 0042478 220.8506 205.9265 14.16409010  8569

Traccia FENGYUN 1C DEB in tempo reale con AllMySat

Download on the App Store